Tracking 18840 objects as of 18-November-2017
HD Live streaming from Space Station
objects crossing your sky now

ORSTED

Track ORSTED now!
10-day predictions
ORSTED is classified as:


NORAD ID: 25635
Int'l Code: 1999-008B
Perigee: 639.4 km
Apogee: 839.0 km
Inclination: 96.5 °
Period: 99.4 minutes
Semi major axis: 7110 km
RCS: 0.3282 m2 (medium)
Launch date: February 23, 1999
Source: Denmark (DEN)
Launch site: AIR FORCE WESTERN TEST RANGE (AFWTR)

Magnetometer and a star camera for measurements of the geomagnetic field.
aabbcc
Your satellite tracking list
Your tracking list is empty




NASA's NSSDC Master Catalog

Two Line Element Set (TLE):
1 25635U 99008B   17321.74148812 +.00000123 +00000-0 +36497-4 0  9995
2 25635 096.4605 191.5688 0140364 117.6394 243.9134 14.48031580988173
Source of the keplerian elements: AFSPC